EW7605 Weather Reports


Display with metric or nautical units.
time (UTC)temp
F
wind
direction
speed
MPH
gust
MPH
rain 1hr
in
rain 24hr
in
rain mn
in
humidity
%
barometer
mb
20260504221520 69 17 1.0 4.0 0.00 0.00 0.00 36 1004.3
20260504220009 69 334 4.0 11.0 0.00 0.00 0.00 36 1004.3
20260504214508 69 15 1.0 6.0 0.00 0.00 0.00 37 1004.4
20260504213008 70 326 3.0 10.0 0.00 0.00 0.00 36 1004.4
20260504211506 70 38 6.0 14.0 0.00 0.00 0.00 37 1004.3
20260504210004 69 346 4.0 10.0 0.00 0.00 0.00 37 1004.2
20260504204502 69 355 1.0 10.0 0.00 0.00 0.00 39 1004.3
20260504203001 68 302 2.0 13.0 0.00 0.00 0.00 42 1004.4
20260504201600 68 304 1.0 10.0 0.00 0.00 0.00 42 1004.5
20260504194559 68 329 3.0 12.0 0.00 0.00 0.00 41 1004.6
20260504193100 66 72 6.0 14.0 0.00 0.00 0.00 43 1004.6
20260504191550 64 311 1.0 5.0 0.00 0.00 0.00 52 1004.7
20260504190050 63 94 0.0 3.0 0.00 0.00 0.00 55 1004.8
20260504184549 62 176 0.0 2.0 0.00 0.00 0.00 56 1005.0
20260504183047 63 33 0.0 3.0 0.00 0.00 0.00 52 1005.0
20260504181549 64 119 1.0 8.0 0.00 0.00 0.00 44 1004.9
20260504180050 64 11 5.0 14.0 0.00 0.00 0.00 42 1004.8
20260504174547 63 348 4.0 12.0 0.00 0.00 0.00 42 1004.9
20260504173045 64 348 4.0 11.0 0.00 0.00 0.00 41 1005.0
20260504171545 64 338 10.0 21.0 0.00 0.00 0.00 38 1004.6
20260504081511 36 25 0.0 2.0 0.00 0.01 0.00 74 1007.4
20260504044551 37 323 0.0 0.0 0.00 0.01 0.00 74 1007.2
20260504043049 37 323 0.0 0.0 0.00 0.01 0.00 73 1007.1
20260504041545 39 324 0.0 0.0 0.00 0.01 0.00 71 1007.2
20260504040100 39 322 0.0 0.0 0.00 0.01 0.00 71 1007.1
20260504034540 40 322 0.0 2.0 0.00 0.01 0.01 70 1007.0
20260504033035 41 322 0.0 5.0 0.00 0.01 0.01 67 1006.9
20260504031529 41 33 0.0 2.0 0.00 0.01 0.01 67 1006.9
20260504030025 41 33 0.0 2.0 0.00 0.01 0.01 66 1006.9
20260504024522 42 34 0.0 2.0 0.00 0.01 0.01 65 1006.9
20260504023017 42 343 0.0 3.0 0.00 0.01 0.01 66 1007.0
20260504021512 42 350 1.0 3.0 0.00 0.01 0.01 67 1006.9
20260504020010 42 321 0.0 2.0 0.00 0.01 0.01 66 1006.7
20260504014511 43 15 0.0 5.0 0.00 0.07 0.01 65 1006.7
20260504013108 44 355 0.0 4.0 0.00 0.07 0.01 63 1006.6
20260504011555 44 32 0.0 2.0 0.00 0.07 0.01 62 1006.4
20260504010054 45 84 0.0 6.0 0.00 0.07 0.01 60 1006.2
20260504004552 45 5 0.0 6.0 0.00 0.07 0.01 59 1006.0
20260504003058 45 355 0.0 4.0 0.00 0.07 0.01 59 1005.7
20260504001602 46 23 0.0 9.0 0.00 0.07 0.01 57 1005.5
20260504000047 47 5 0.0 5.0 0.00 0.07 0.01 54 1005.2
20260503234540 48 71 1.0 10.0 0.00 0.07 0.01 51 1004.9
20260503233041 48 147 1.0 8.0 0.00 0.07 0.01 51 1004.7
20260503231534 49 344 0.0 5.0 0.00 0.07 0.01 50 1004.4
20260503230030 50 94 1.0 10.0 0.00 0.07 0.01 47 1004.2
20260503224525 51 57 2.0 11.0 0.00 0.07 0.01 46 1003.8
20260503223021 52 86 1.0 9.0 0.00 0.07 0.01 46 1003.6